User: anonymous   Login
Location: Unspecified
(0.0000°N, 0.0000°E)
Time: 11:17:02
(UTC+00:00)
Language:

TDRS 1 - Orbit

View from above orbital plane
View from above orbital plane
View from above satellite
View from above satellite

Ground track
Ground track

The orbit data is extracted from the following two-line orbital elements,

1 13969U 83026B   18019.74143340 -.00000243 +00000-0 +00000-0 0  9992
2 13969 013.3440 342.7270 0017801 202.9388 337.1436 00.98745372100035
Epoch (UTC): 19 January 2018 17:47:39
Eccentricity: 0.0017801
inclination: 13.3440°
perigee height: 36144 km
apogee height: 36295 km
right ascension of ascending node: 342.7270°
argument of perigee: 202.9388°
revolutions per day: 0.98745372
mean anomaly at epoch: 337.1436°
orbit number at epoch: 10003

The dashed part of the orbit path shows where the satellite is in the earth's shadow,  

DLR